Regional Weather Roundup
Issued by NWS

Home | Current Version | Previous Version | Text Only | Print | Product List | Glossary Off
Versions: 1 2 3 4 5 6 7 8 9 10 11 12 13 14 15 16 17 18 19 20 21 22 23 24 25 26 27 28 29 30 31 32 33 34 35 36 37 38 39 40 41 42 43 44 45 46 47 48 49 50

000
ASUS43 KOAX 300402
RWRNE

WEATHER ROUNDUP FOR NEBRASKA
NATIONAL WEATHER SERVICE OMAHA NE
1100 PM CDT WED OCT 29 2014

NOTES: SATELLITE DATA IS BEING USED TO AUGMENT CLOUD COVER ABOVE
       12000 FEET.
       "FAIR" INDICATES FEW OR NO CLOUDS BELOW 12,000 FEET WITH NO
       SIGNIFICANT WEATHER AND/OR OBSTRUCTIONS TO VISIBILITY.

  * THESE STATIONS DO NOT REPORT WEATHER SUCH AS RAIN...SNOW OR FOG.

NEZ001>004-019>022-054>056-300500-
NEBRASKA PANHANDLE

CITY           SKY/WX    TMP DP  RH WIND       PRES   REMARKS
SCOTTSBLUFF    PTCLDY    43  30  60 NW7       30.13R
ALLIANCE       CLEAR     37  26  64 N5        30.11R WCI  33
CHADRON        MOCLDY    42  29  59 N3        30.12R
KIMBALL        PTCLDY    40  27  58 W8        30.15R WCI  35
SIDNEY         MOCLDY    42  25  50 NW9       30.15R
$$

NEZ057>060-069>072-079>082-300500-
SOUTHWEST NEBRASKA

CITY           SKY/WX    TMP DP  RH WIND       PRES   REMARKS
NORTH PLATTE   PTCLDY    55  24  30 N13       30.03R
IMPERIAL       CLEAR     50  23  34 NW13      30.07R
LEXINGTON      MOCLDY    49  37  63 S5        29.98R
MCCOOK         MOCLDY    52  30  43 SW9       30.01R
OGALLALA       CLEAR     54  27  34 N12       30.08R
$$

NEZ005>010-023>029-035>040-094-300500-
NORTH CENTRAL NEBRASKA

CITY           SKY/WX    TMP DP  RH WIND       PRES   REMARKS
VALENTINE      PTCLDY    44  26  49 W8        30.04R
AINSWORTH      MOCLDY    47  28  48 W8        30.03R
BROKEN BOW     MOCLDY    49  35  58 VRB6      30.01R
O`NEILL        CLOUDY    48  34  58 S7        30.02R
ORD            MOCLDY    45  33  63 CALM      30.00R
THEDFORD       PTCLDY    50  27  42 N7        30.05S
$$

NEZ041-046>049-061>064-073>077-083>087-300500-
SOUTH CENTRAL NEBRASKA

CITY           SKY/WX    TMP DP  RH WIND       PRES   REMARKS
GRAND ISLAND   MOCLDY    51  34  52 SE10      29.99F
AURORA         MOCLDY    47  33  57 SE8       29.99S
HASTINGS       MOCLDY    50  34  54 SE10      29.98S
HEBRON         PTCLDY    45  35  68 SE3       30.00S
HOLDREGE       PTCLDY    46  36  68 CALM      29.98R
KEARNEY *      PTCLDY    46  34  61 SE3       29.98S
YORK           PTCLDY    46  34  61 SE9       30.00F
$$

NEZ011>018-030>034-042>045-300500-
NORTHEAST NEBRASKA

CITY           SKY/WX    TMP DP  RH WIND       PRES   REMARKS
NORFOLK        CLOUDY    46  34  62 CALM      30.03R
ALBION         CLOUDY    45  32  59 E3        30.01S
BLAIR          MOCLDY    47  33  56 SE5       30.05S
COLUMBUS *       N/A    N/A N/A N/A MISG        N/A
FREMONT        CLOUDY    47  34  61 E5        30.05S
TEKAMAH        MOCLDY    41  31  67 S3        30.06S
WAYNE          CLOUDY    44  33  65 SE3       30.04F
$$

NEZ050>053-065>068-078-088>093-300500-
SOUTHEAST NEBRASKA

CITY           SKY/WX    TMP DP  RH WIND       PRES   REMARKS
LINCOLN        PTCLDY    46  33  60 SE6       30.04F
OMAHA EPPLEY   MOCLDY    48  32  53 SE5       30.08R
BEATRICE       CLEAR     48  35  60 SE5       30.02F
FALLS CITY     CLEAR     43  34  70 SE7       30.06F
NEBRASKA CITY  PTCLDY    44  29  56 SE5       30.05F
PLATTSMOUTH    PTCLDY    45  32  59 SE5       30.06S
$$

NEZ044-045-051>053-067-300500-
OMAHA AREA

CITY           SKY/WX    TMP DP  RH WIND       PRES   REMARKS
OMAHA EPPLEY   MOCLDY    48  32  53 SE5       30.08R
BLAIR          MOCLDY    47  33  56 SE5       30.05S
FREMONT        CLOUDY    47  34  61 E5        30.05S
MILLARD        MOCLDY    46  34  63 CALM      30.06S
OFFUTT AFB     PTCLDY    46  30  53 E6        30.06S
PLATTSMOUTH    PTCLDY    45  32  59 SE5       30.06S
WAHOO          FAIR      43  32  67 SE3       30.05S
$$



USA.gov is the U.S. government's official web portal to all federal, state and local government web resources and services.